YAHSAT 1B

Last updated on Jan. 26, 2020, 4:40 a.m. UTC

1 38245U 12016A   20025.57340753  .00000119  00000-0  00000-0 0  9996
2 38245   0.0232  85.7402 0002243 217.5721  75.0476  1.00270033 22192
UTC
Height (km)
Latitude
Longitude
Inclination
Orbital Period
UTC large
Height (km)
Speed (km/s)
/
Latitude / Longitude
Inclination (degrees)
Orbital Period (minutes)
Azimuth
Elevation
Range (km)
Doppler Factor
iOS Compass Heading
iOS Angle

Next 30 passes for location: Hong Kong

Rise time Rise Azimuth (degrees) Set time Set Azimuth (degrees) Duration Max altitude (degrees)

No matching passes for this satellites